This is the latest recevied weather packets stored in our database for station/object OK1FPA-15. If no packets are shown the sender has not sent any weather packets the latest 10 day(s).
| Time | Temp. | Humidity | Pressure | Rain* | Wind** | Luminosity | Snow |
|---|---|---|---|---|---|---|---|
| 1777731452 | 24.44° C | 22% | 1020.5 hPa | - | - | - | - |
| 1777730852 | 24.44° C | 21% | 1020.6 hPa | - | - | - | - |
| 1777730252 | 24.44° C | 22% | 1020.7 hPa | - | - | - | - |
| 1777729652 | 24.44° C | 22% | 1020.9 hPa | - | - | - | - |
| 1777729052 | 24.44° C | 21% | 1021 hPa | - | - | - | - |
| 1777728453 | 24.44° C | 22% | 1021.1 hPa | - | - | - | - |
| 1777727852 | 24.44° C | 22% | 1021.3 hPa | - | - | - | - |
| 1777727252 | 24.44° C | 23% | 1021.6 hPa | - | - | - | - |
| 1777726652 | 24.44° C | 25% | 1021.6 hPa | - | - | - | - |
| 1777726052 | 24.44° C | 24% | 1021.8 hPa | - | - | - | - |
| 1777725452 | 24.44° C | 26% | 1021.8 hPa | - | - | - | - |
| 1777724852 | 24.44° C | 24% | 1022 hPa | - | - | - | - |
| 1777724252 | 23.89° C | 23% | 1022.1 hPa | - | - | - | - |
| 1777723652 | 23.89° C | 24% | 1022.3 hPa | - | - | - | - |
| 1777723052 | 23.89° C | 27% | 1022.5 hPa | - | - | - | - |
| 1777722455 | 23.89° C | 28% | 1022.6 hPa | - | - | - | - |
| 1777721851 | 23.33° C | 25% | 1022.9 hPa | - | - | - | - |
| 1777721251 | 23.33° C | 26% | 1023.1 hPa | - | - | - | - |
| 1777720651 | 22.78° C | 26% | 1023.2 hPa | - | - | - | - |
| 1777720051 | 23.33° C | 23% | 1023.3 hPa | - | - | - | - |
| 1777719451 | 22.78° C | 25% | 1023.5 hPa | - | - | - | - |
| 1777718851 | 22.78° C | 26% | 1023.5 hPa | - | - | - | - |
| 1777718251 | 22.22° C | 26% | 1023.6 hPa | - | - | - | - |
| 1777717651 | 22.78° C | 29% | 1023.9 hPa | - | - | - | - |
| 1777717051 | 22.22° C | 27% | 1024 hPa | - | - | - | - |
* Rain since midnight (hover to see other rain measurements)
** Current wind speed in m/s (hover to see current wind gust speed)